This is the latest recevied weather packets stored in our database for station/object KM6YFK-13. If no packets are shown the sender has not sent any weather packets the latest 10 day(s).
| Time | Temp. | Humidity | Pressure | Rain* | Wind** | Luminosity | Snow |
|---|---|---|---|---|---|---|---|
| 1777834407 | 23.33° C | 53% | 1018.2 hPa | 0 mm | - | 911 W/m² | - |
| 1777834107 | 23.33° C | 54% | 1018.3 hPa | 0 mm | - | 922 W/m² | - |
| 1777833808 | 23.33° C | 54% | 1018.3 hPa | 0 mm | - | 929 W/m² | - |
| 1777833508 | 23.33° C | 53% | 1018.3 hPa | 0 mm | - | 942 W/m² | - |
| 1777833208 | 23.33° C | 56% | 1018.5 hPa | 0 mm | - | 948 W/m² | - |
| 1777832908 | 23.33° C | 54% | 1018.4 hPa | 0 mm | - | 954 W/m² | - |
| 1777832608 | 23.89° C | 51% | 1018.5 hPa | 0 mm | - | 960 W/m² | - |
| 1777832308 | 23.33° C | 52% | 1018.5 hPa | 0 mm | - | 966 W/m² | - |
| 1777832008 | 23.33° C | 53% | 1018.6 hPa | 0 mm | - | 971 W/m² | - |
| 1777831707 | 23.33° C | 52% | 1018.8 hPa | 0 mm | - | 979 W/m² | - |
| 1777831407 | 23.33° C | 54% | 1018.7 hPa | 0 mm | - | 994 W/m² | - |
| 1777831107 | 22.78° C | 58% | 1018.8 hPa | 0 mm | - | 1017 W/m² | - |
| 1777830808 | 23.33° C | 55% | 1018.9 hPa | 0 mm | - | 1020 W/m² | - |
| 1777830508 | 23.33° C | 58% | 1018.9 hPa | 0 mm | - | 1061 W/m² | - |
| 1777830208 | 23.33° C | 54% | 1018.9 hPa | 0 mm | - | 1020 W/m² | - |
| 1777829908 | 22.78° C | 56% | 1018.9 hPa | 0 mm | - | 1032 W/m² | - |
| 1777829608 | 22.78° C | 56% | 1019 hPa | 0 mm | - | 1057 W/m² | - |
| 1777829307 | 22.22° C | 59% | 1018.9 hPa | 0 mm | - | 1099 W/m² | - |
| 1777829007 | 22.22° C | 59% | 1018.9 hPa | 0 mm | - | 471 W/m² | - |
| 1777828707 | 22.78° C | 57% | 1019 hPa | 0 mm | - | 832 W/m² | - |
| 1777828408 | 22.78° C | 58% | 1019 hPa | 0 mm | - | 1050 W/m² | - |
| 1777828108 | 22.78° C | 59% | 1019.1 hPa | 0 mm | - | 1080 W/m² | - |
| 1777827807 | 22.78° C | 60% | 1019.1 hPa | 0 mm | - | 1089 W/m² | - |
| 1777827508 | 22.78° C | 59% | 1019.2 hPa | 0 mm | - | 988 W/m² | - |
| 1777827208 | 22.78° C | 63% | 1019.2 hPa | 0 mm | - | 944 W/m² | - |
* Rain latest hour (hover to see other rain measurements)
** Current wind speed in m/s (hover to see current wind gust speed)